STARLINK-1267, 45384

Orbit data source: Space-Track

STARLINK-1267, 45384 is a payload satellite owned by SpaceX/Seattle (US) in LEO that was launched on Wed, 18 Mar 2020 UTC via an FALCON 9 launch vehicle from the Air Force Eastern Test Range (AFETR). Payload-class satellites include a variety of spacecraft equipped with specific instruments for various scientific and technological missions. These include communications satellites like Starlink; space stations such as the ISS; scientific satellites like the Hubble; Earth observation satellites from companies like Planet Labs, Umbra, and HawkEye 360; GPS; miniature CubeSats for education and research; and military/defense satellites.

Loading next visibility...
Identifier
45384, 2020-019AA
Orbit
LEO
Country
Flag of USUS
Related business
Manufacturer
SpaceX/Seattle
Mission
Operational Commercial Communications
Bus & Motor
STARLINK, Unknown motor
Mass
260 kg wet, ~248 kg dry
Launch date (UTC)
2020-03-18 (6 years ago)
Launch vehicle
FALCON 9
Launch site
Air Force Eastern Test Range (AFETR)
Object type
Payload
Rocket body
Debris
Shape & HBR
Box + 1 Pan, 4.4 m
Radar Cross Section
13.562 m², Large (>1 m²)

Expand to show TLE details & history
Last TLE update: 9 hours ago

TLE from 9 hours ago
0 STARLINK-1267
1 45384U 20019AA  25259.57388890  .00000353  00000-0  42633-4 0  9990
2 45384  53.0525 208.9104 0001923  81.4731 278.6475 15.06393817303759
Epoch: 2025-09-16T13:46Z
TLE epoch observation values (Epoch: 2025-09-16T13:46:24Z)
Latitude
-0.00011°
Longitude
6.54807°
Altitude
547.909 km
Speed
7.589 km/s
True Right ascension
13h 55m 38s
True Declination
0° 00' 00"
Sunlit
Object was in daylight at epoch
Visualization orbit readout
Latitude
Unknown
Longitude
Unknown
Altitude
Unknown
Speed
Unknown
Apparent Right ascension
Unknown
Apparent Declination
Unknown
Sunlit
N/A
Visualization observer readout
Local Sidereal Time
15:19:57
Azimuth
Unknown
Elevation
Unknown
Doppler factor
Unknown
Orbital elements
Apogee altitude
548.833 km
Perigee altitude
546.17 km
Semi-major axis
6,925.639 km
Eccentricity
0.00019
Inclination
53.0525°
RAAN
208.9104°
Arg. of periapsis
81.4731°
True anomaly
278.62571°
Mean anomaly
278.6475°
Eccentric anomaly
278.63661°
Mean motion
3.76577 °/min
Orbital period
95.6 mins
BSTAR
0.000042633
Loading maneuver chart data...
Computing Atmospheric mass density...
Loading historical data...
Loading historical data...
Loading historical data...
Loading historical data...
Loading historical data...
Loading historical data...
Loading historical data...

Documentation

Showing up to 5 results
|